星链-32936 (STARLINK-32936)

导读

STARLINK-32936是美国SpaceX星链星座的卫星,于2025年3月3日发射入轨。星链项目旨在打造全球卫星互联网星座,为地面用户提供低成本、高覆盖的宽带网络服务。该卫星延续了星链标准设计,参与低轨星座组网,进一步扩展了星链系统的全球服务覆盖范围。

Basic Information
目录编号:
63147
目录名称:
STARLINK-32936
国际标识:
2025-043R
轨道中心:
EARTH
卫星名称:
星链-32936
卫星全名:
星链-32936 (STARLINK-32936)
卫星状态:
在轨 (已飞行550 天)
发射日期:
2025-03-03 UTC
国别 :
美国 (US)
星等 :
--
Orbit Information
数据来源 国际轨道数据 AOE轨道数据
星历时间 2026-09-03T22:36:59+0800
17小时前
查看轨道信息
2026-09-02T12:00:00+0800
2天前
查看轨道信息
半长轴 6861.182km 6861.093km
偏心率 0.0001195 0.0001515
轨道倾角 42.999° 42.998°
近地点辐角 270.872° 263.488°
升交点赤经 98.288° 106.436°
平近点角 89.199° 75.419°
近地点 482.225km 481.916km
远地点 483.865km 483.996km
周期 94.267分钟 94.265分钟
每日圈数 15.275815 15.276114
Detailed Information
固有亮度:
5
最大亮度:
2.5
卫星平台:
Starlink V1.0
覆盖范围:
全球
运营商:
太空探索技术公司
运营商所在国:
美国
制造商(研发单位):
太空探索技术公司
制造商所在国:
美国
使用方式:
暂无
Satellite Introduction
Starlink 计划是 SpaceX 推出的全球卫星互联网项目,通过发射低轨道卫星,为全球尤其是偏远地区提供高速、低延迟的互联网服务。自 2019 年起,Starlink 已部署数千颗卫星,旨在缩小全球数字鸿沟,推动互联网普及。该项目还为军事、航空等行业提供通信支持,带来广泛经济效益。
2D Orbit Map
3D Orbit Map
Orbit Altitude Analysis Chart
Orbit Inclination Analysis Chart
Orbit Comprehensive Analysis Chart
View Comprehensive Chart
Conjunction Data List
Event ID Objects TCA Miss Dist (km) Collision Risk Probability Collision Risk Index (CRI) Action
CDM_260831-073505-823706-314723
2026-08-31T
07:35:00+0000
0.486 km
远距离
1.503328E-4 高风险 0.79
CDM_260905-113305-823706-314721
2026-09-05T
11:33:20+0000
0.651 km
远距离
6.94215E-5 中风险 0.72
CDM_260831-043106-289206-314721
2026-08-31T
04:31:27+0000
0.741 km
远距离
3.466657E-5 中风险 0.66
CDM_260905-130705-823706-314721
2026-09-05T
13:07:29+0000
0.972 km
远距离
1.910213E-5 中风险 0.61
CDM_260831-180405-708906-314721
2026-08-31T
18:04:53+0000
1.409 km
极远距离
4.566957E-6 低风险 0.48
CDM_260831-025706-289206-314721
2026-08-31T
02:57:18+0000
1.489 km
极远距离
3.327713E-6 低风险 0.45
CDM_260831-090905-823706-314722
2026-08-31T
09:09:09+0000
1.850 km
极远距离
2.348688E-6 低风险 0.42
CDM_260831-193905-708906-314721
2026-08-31T
19:39:02+0000
1.948 km
极远距离
1.774246E-6 低风险 0.4
CDM_260905-095905-823706-314721
2026-09-05T
09:59:11+0000
2.130 km
极远距离
1.65868E-6 低风险 0.39
CDM_260905-144105-823706-314721
2026-09-05T
14:41:38+0000
2.519 km
极远距离
1.19335E-6 低风险 0.37